Location: Lombard
(41.8800°N, 88.0078°W)
Time: 01:08:22
(UTC-06:00)

BlueWalker 3 - Pass Details

Date: 24 January 2026
Orbit: 450 x 461 km, 53.2° (Epoch: 11 February)

Event Time Altitude Azimuth Distance (km) Brightness Sun altitude
Rises 19:02:21 0° 275° (W) 2,452 6.8 -23.2°
Reaches altitude 10° 19:04:55 10° 294° (WNW) 1,581 5.3 -23.7°
Enters shadow 19:07:18 19° 336° (NNW) 1,135 3.9 -24.1°
